Location: Coffee Creek Observatory
(38.8077°N, 94.7179°W)
Time: 06:04:30
(UTC-05:00)

Amateur Radio Satellites - All Passes

Search period start: 28 March 2015 05:34
Search period end: 29 March 2015 05:34
Location: Coffee Creek Observatory, 38.8077°N, 94.7179°W

Satellite Date Start Highest point End Downlink Frequencies (MHz)
Time Altitude Azimuth
ISS 28 Mar 06:18:18 06:21:27 47° 34° (NE) 06:24:34 145.825
GONETS M04 28 Mar 06:18:33 06:25:44 28° 68° (ENE) 06:33:12
AUBIESAT-1 28 Mar 06:18:49 06:22:22 33° 259° (W) 06:26:13 437.475
PRISM 28 Mar 06:19:34 06:22:54 24° 69° (ENE) 06:26:19 437.425
MOZHAYETS 4 28 Mar 06:22:44 06:26:07 19° 268° (W) 06:29:23
CUBESAT XI-V 28 Mar 06:27:10 06:31:26 36° 72° (ENE) 06:35:46 437.345
STRAND 1 28 Mar 06:37:55 06:42:14 29° 68° (ENE) 06:46:39 437.568
JAS-2 28 Mar 06:41:28 06:48:36 39° 293° (WNW) 06:55:11 435.910
M-CUBED/EXP-1 PRIME 28 Mar 06:43:20 06:45:52 16° 266° (W) 06:48:21 437.505
Cubesat XI-IV 28 Mar 06:43:57 06:48:01 22° 93° (E) 06:52:11 437.490
AO-7 28 Mar 06:44:09 06:51:51 43° 296° (WNW) 06:59:27 29.400- 29.500
CUTE-I 28 Mar 06:44:14 06:48:16 22° 93° (E) 06:52:26 437.470
O/OREOS (USA 219) 28 Mar 06:51:59 06:52:34 10° 310° (NW) 06:52:54 437.305
VERMONT LUNAR 28 Mar 07:04:57 07:08:15 58° 160° (SSE) 07:11:34 437.305
RS-15 28 Mar 07:07:10 07:17:08 33° 253° (WSW) 07:27:01 29.354- 29.394
PHONESAT 2.4 28 Mar 07:33:05 07:36:27 44° 156° (SSE) 07:39:50 2401.200-2431.200
DANDE 28 Mar 07:45:02 07:46:29 12° 74° (ENE) 07:48:21 436.750
PRISM 28 Mar 07:54:41 07:58:18 27° 264° (W) 08:01:53 437.425
ISS 28 Mar 07:55:32 07:57:36 16° 229° (SW) 07:59:35 145.825
CUBESAT XI-V 28 Mar 08:05:22 08:09:01 21° 267° (W) 08:12:33 437.345
GONETS M04 28 Mar 08:14:35 08:23:15 61° 268° (W) 08:31:52
STRAND 1 28 Mar 08:16:44 08:21:22 32° 264° (W) 08:25:57 437.568
Cubesat XI-IV 28 Mar 08:23:18 08:28:20 42° 289° (WNW) 08:33:18 437.490
CUTE-I 28 Mar 08:23:33 08:28:35 43° 289° (WNW) 08:33:32 437.470
BRITE-PL 28 Mar 08:30:35 08:30:47 10° 89° (E) 08:31:17 437.365/2234.400
VERMONT LUNAR 28 Mar 08:42:39 08:46:00 64° 356° (N) 08:49:21 437.305
CUSAT 1 28 Mar 08:44:50 08:49:02 77° 80° (E) 08:54:44 437.405
SEEDS 28 Mar 09:06:19 09:07:56 12° 89° (E) 09:09:49 437.485
PHONESAT 2.4 28 Mar 09:11:13 09:14:44 71° 351° (N) 09:18:17 2401.200-2431.200
DOVE 4 28 Mar 09:17:46 09:20:29 17° 92° (E) 09:23:27 437.250
GOMX 1 28 Mar 09:21:35 09:25:13 27° 96° (E) 09:29:03 467.674
DANDE 28 Mar 09:25:50 09:29:44 52° 261° (W) 09:34:56 436.750
COMPASS 1 28 Mar 09:29:47 09:32:44 19° 92° (E) 09:35:50 437.405
CANX-2 28 Mar 09:54:26 09:58:43 61° 100° (E) 10:02:59 2200.000
HO-68 28 Mar 10:01:32 10:08:42 65° 102° (ESE) 10:15:50 435.675
BRITE-PL 28 Mar 10:05:39 10:09:47 58° 285° (WNW) 10:14:04 437.365/2234.400
CUTE 1.7 + AOD 2 28 Mar 10:08:34 10:12:54 81° 103° (ESE) 10:17:12 437.475
UNISAT 6 28 Mar 10:16:34 10:19:44 21° 68° (ENE) 10:23:02 437.425
BEESAT 3 28 Mar 10:17:19 10:20:02 18° 111° (ESE) 10:22:55 437.485
VERMONT LUNAR 28 Mar 10:20:28 10:23:50 86° 8° (N) 10:27:14 437.305
POPSAT HIP 1 28 Mar 10:20:31 10:21:58 12° 65° (ENE) 10:23:37 437.405
UKube-1 28 Mar 10:26:14 10:27:17 11° 89° (E) 10:28:36 .
DELFI C3 28 Mar 10:26:45 10:30:08 25° 95° (E) 10:33:33 145.870
TIGRISAT 28 Mar 10:27:04 10:30:35 26° 70° (ENE) 10:34:13 435.000
NANOSAT C BR1 28 Mar 10:30:40 10:33:04 15° 67° (ENE) 10:35:39 145.865
POLYITAN 1 28 Mar 10:33:22 10:36:02 17° 68° (ENE) 10:38:50 437.675
DX 1 28 Mar 10:33:29 10:35:50 15° 91° (E) 10:38:22 434.975-435.025
AAUSAT CUBESAT 2 28 Mar 10:38:19 10:42:35 78° 282° (WNW) 10:46:47 437.432
SEEDS 28 Mar 10:39:58 10:44:09 52° 286° (WNW) 10:48:18 437.485
HUMSAT D 28 Mar 10:41:38 10:43:08 12° 89° (E) 10:44:52 437.325/437.525
CINEMA 3 28 Mar 10:43:23 10:47:48 79° 103° (ESE) 10:52:24 145.822/145.860
PHONESAT 2.4 28 Mar 10:49:42 10:53:15 75° 9° (N) 10:56:48 2401.200-2431.200
Oscar 11 28 Mar 10:53:35 10:57:58 70° 102° (ESE) 11:02:18 145.826/435.025
DOVE 4 28 Mar 10:54:25 10:58:27 40° 287° (WNW) 11:02:39 437.250
ANTELSAT 28 Mar 10:55:54 11:00:05 59° 75° (ENE) 11:04:20 437.575/2403.000
GOMX 1 28 Mar 10:59:52 11:03:19 24° 289° (WNW) 11:06:48 467.674
FUNcube-1 28 Mar 11:01:28 11:05:38 42° 98° (E) 11:09:53 145.935
UWE-3 28 Mar 11:02:06 11:06:26 55° 100° (E) 11:10:52 435.000/436.395/437.385
CUBEBUG 2 28 Mar 11:04:16 11:08:41 72° 101° (ESE) 11:13:13 437.445
COMPASS 1 28 Mar 11:04:42 11:08:34 33° 288° (WNW) 11:12:22 437.405
VELOX 1 28 Mar 11:08:00 11:10:29 15° 91° (E) 11:13:09 145.980
QB50P1 28 Mar 11:10:00 11:13:58 42° 73° (ENE) 11:17:59 145.935-145.965
AISAT 28 Mar 11:11:46 11:14:38 17° 92° (E) 11:17:40 437.250
DUCHIFAT 1 28 Mar 11:12:36 11:16:36 44° 73° (ENE) 11:20:38 145.980
ZACube-1 28 Mar 11:13:42 11:18:03 60° 101° (E) 11:22:28 437.345
BEESAT 2 28 Mar 11:15:02 11:19:06 68° 119° (ESE) 11:23:15 435.950
QB50P2 28 Mar 11:24:07 11:28:18 64° 75° (ENE) 11:32:30 145.880/145.840
CANX-2 28 Mar 11:32:30 11:34:12 12° 295° (WNW) 11:35:41 2200.000
ESTCUBE 1 28 Mar 11:36:56 11:39:45 17° 91° (E) 11:42:43 437.505/2401.250
50 SAT 28 Mar 11:41:03 11:44:49 37° 98° (E) 11:48:36 437.505
HO-68 28 Mar 11:50:18 11:55:55 24° 299° (WNW) 12:01:18 435.675
UNISAT 6 28 Mar 11:52:36 11:56:24 30° 264° (W) 12:00:11 437.425
POPSAT HIP 1 28 Mar 11:53:16 11:57:25 58° 259° (W) 12:01:35 437.405
BEESAT 3 28 Mar 11:54:00 11:57:51 38° 307° (NW) 12:01:45 437.485
VERMONT LUNAR 28 Mar 11:58:28 12:01:22 27° 208° (SSW) 12:04:16 437.305
BUGSAT 1 28 Mar 11:59:19 12:03:30 69° 258° (WSW) 12:07:38 437.445
UKube-1 28 Mar 11:59:38 12:03:54 59° 286° (WNW) 12:08:08 .
DELFI C3 28 Mar 12:01:54 12:05:15 24° 290° (WNW) 12:08:30 145.870
TIGRISAT 28 Mar 12:03:53 12:07:21 24° 266° (W) 12:10:47 435.000
NANOSAT C BR1 28 Mar 12:04:36 12:08:38 42° 262° (W) 12:12:39 145.865
POLYITAN 1 28 Mar 12:07:45 12:11:43 38° 262° (W) 12:15:40 437.675
DX 1 28 Mar 12:08:14 12:12:22 44° 288° (WNW) 12:16:29 434.975-435.025
HUMSAT D 28 Mar 12:15:08 12:19:17 53° 286° (WNW) 12:23:27 437.325/437.525
AIST 2 28 Mar 12:19:26 12:23:41 72° 302° (WNW) 12:27:59 435.215
PHONESAT 2.4 28 Mar 12:28:11 12:31:30 38° 205° (SSW) 12:34:50 2401.200-2431.200
Oscar 11 28 Mar 12:32:30 12:33:38 11° 295° (WNW) 12:34:30 145.826/435.025
ANTELSAT 28 Mar 12:36:21 12:37:23 11° 272° (W) 12:38:08 437.575/2403.000
FUNcube-1 28 Mar 12:38:48 12:41:42 17° 292° (WNW) 12:44:29 145.935
UWE-3 28 Mar 12:40:19 12:42:36 14° 293° (WNW) 12:44:42 435.000/436.395/437.385
VELOX 1 28 Mar 12:43:08 12:47:21 44° 288° (WNW) 12:51:31 145.980
CUBEBUG 2 28 Mar 12:43:47 12:44:55 11° 295° (WNW) 12:45:48 437.445
CUBEBUG 1 28 Mar 12:46:43 12:51:05 89° 305° (NW) 12:55:24 437.445
AISAT 28 Mar 12:47:20 12:51:27 38° 288° (WNW) 12:55:31 437.250
QB50P1 28 Mar 12:47:40 12:50:08 15° 269° (W) 12:52:23 145.935-145.965
DUCHIFAT 1 28 Mar 12:50:27 12:52:44 14° 269° (W) 12:54:50 145.980
ZACube-1 28 Mar 12:52:03 12:54:00 12° 294° (WNW) 12:55:46 437.345
BEESAT 2 28 Mar 12:55:32 12:57:46 14° 317° (NW) 12:59:52 435.950
TISAT 1 28 Mar 12:55:32 12:58:48 22° 94° (E) 13:02:09 437.305
SPROUT 28 Mar 13:00:57 13:04:46 31° 96° (E) 13:08:37 437.525
YUBILEINY 28 Mar 13:06:41 13:12:22 20° 81° (E) 13:18:33 435.215
Oscar 19 28 Mar 13:09:25 13:13:39 28° 68° (ENE) 13:18:00 437.125/150
ESTCUBE 1 28 Mar 13:12:36 13:16:53 42° 288° (WNW) 13:21:06 437.505/2401.250
50 SAT 28 Mar 13:16:55 13:19:29 16° 292° (WNW) 13:21:54 437.505
O/OREOS (USA 219) 28 Mar 13:41:27 13:43:49 14° 53° (NE) 13:46:21 437.305
ITUPSAT 1 28 Mar 13:56:55 13:59:52 17° 91° (E) 14:03:02 437.325
AO-7 28 Mar 14:04:37 14:05:34 10° 46° (NE) 14:07:05 29.400- 29.500
ITAMSAT 1 28 Mar 14:11:47 14:16:28 36° 70° (ENE) 14:21:14 435.822/435.867
PCSat 28 Mar 14:28:01 14:31:26 18° 106° (ESE) 14:35:06 145.827
TISAT 1 28 Mar 14:31:01 14:34:37 27° 289° (WNW) 14:38:09 437.305
SPROUT 28 Mar 14:37:28 14:40:42 21° 291° (WNW) 14:43:51 437.525
SWISSCUBE 28 Mar 14:44:00 14:48:45 59° 100° (E) 14:53:27 437.505
BEESAT 28 Mar 14:47:11 14:51:55 58° 100° (E) 14:56:37 436.000
Oscar 19 28 Mar 14:48:20 14:52:56 33° 264° (W) 14:57:30 437.125/150
HORYU 2 28 Mar 14:49:13 14:51:04 13° 65° (ENE) 14:53:09 437.375
Gurwin Techsat 1B 28 Mar 14:53:30 14:58:46 70° 75° (ENE) 15:04:05 435.225
YUBILEINY 28 Mar 14:59:32 15:08:20 78° 278° (W) 15:17:13 435.215
JAS-2 28 Mar 15:08:34 15:12:47 18° 58° (ENE) 15:17:34 435.910
KKS-1 28 Mar 15:14:21 15:17:32 20° 93° (E) 15:20:51 437.445
O/OREOS (USA 219) 28 Mar 15:19:14 15:23:44 59° 252° (WSW) 15:28:08 437.305
AIST 1 28 Mar 15:21:48 15:25:06 21° 73° (ENE) 15:28:28
ITUPSAT 1 28 Mar 15:33:28 15:38:06 47° 288° (WNW) 15:42:40 437.325
STARS 28 Mar 15:48:28 15:52:17 29° 96° (E) 15:56:10 437.465
AO-7 28 Mar 15:48:45 15:56:39 51° 66° (ENE) 16:04:36 29.400- 29.500
ITAMSAT 1 28 Mar 15:51:40 15:56:03 26° 266° (W) 16:00:22 435.822/435.867
PCSat 28 Mar 16:09:06 16:14:26 58° 301° (WNW) 16:19:49 145.827
HORYU 2 28 Mar 16:22:55 16:27:17 60° 259° (W) 16:31:41 437.375
SWISSCUBE 28 Mar 16:23:26 16:26:10 15° 296° (WNW) 16:28:42 437.505
BEESAT 28 Mar 16:26:34 16:29:20 15° 295° (WNW) 16:31:54 436.000
JUGNU 28 Mar 16:28:52 16:30:48 12° 178° (S) 16:32:45 437.505
Gurwin Techsat 1B 28 Mar 16:36:44 16:39:22 13° 272° (W) 16:41:42 435.225
JAS-2 28 Mar 16:50:00 16:56:46 89° 77° (ENE) 17:04:23 435.910
KKS-1 28 Mar 16:50:15 16:54:19 35° 289° (WNW) 16:58:20 437.445
AIST 1 28 Mar 16:59:06 17:02:48 27° 269° (W) 17:06:23
YUBILEINY 28 Mar 17:02:09 17:07:00 15° 302° (WNW) 17:11:17 435.215
STARS 28 Mar 17:25:07 17:28:39 23° 291° (WNW) 17:32:06 437.465
SRMSAT 28 Mar 17:26:50 17:28:05 11° 174° (S) 17:29:22 437.500
AO-7 28 Mar 17:42:16 17:49:43 35° 264° (W) 17:57:01 29.400- 29.500
PCSat 28 Mar 17:58:21 17:59:10 10° 323° (NW) 17:59:41 145.827
AUBIESAT-1 28 Mar 18:01:15 18:04:59 23° 97° (E) 18:08:45 437.475
Cubesat XI-IV 28 Mar 18:04:32 18:09:17 34° 69° (ENE) 18:14:06 437.490
CUTE-I 28 Mar 18:04:40 18:09:24 33° 69° (ENE) 18:14:12 437.470
MOZHAYETS 4 28 Mar 18:17:37 18:22:17 74° 285° (WNW) 18:26:53
M-CUBED/EXP-1 PRIME 28 Mar 18:24:12 18:28:50 44° 102° (ESE) 18:33:23 437.505
BEESAT 3 28 Mar 18:38:42 18:39:16 10° 39° (NE) 18:40:01 437.485
JAS-2 28 Mar 18:39:06 18:43:05 15° 277° (W) 18:46:48 435.910
SRMSAT 28 Mar 19:14:48 19:16:22 11° 185° (S) 19:17:54 437.500
RS-15 28 Mar 19:16:07 19:26:17 50° 111° (ESE) 19:36:43 29.354- 29.394
GONETS M04 28 Mar 19:18:23 19:25:42 33° 86° (E) 19:33:16
SO-50 28 Mar 19:28:39 19:33:06 51° 117° (ESE) 19:37:44 436.795
AUBIESAT-1 28 Mar 19:35:24 19:39:55 39° 293° (WNW) 19:44:18 437.475
BEESAT 2 28 Mar 19:36:05 19:39:42 28° 50° (NE) 19:43:18 435.950
PRISM 28 Mar 19:38:00 19:42:01 44° 99° (E) 19:45:59 437.425
BRITE-PL 28 Mar 19:39:45 19:41:41 13° 67° (ENE) 19:43:48 437.365/2234.400
Cubesat XI-IV 28 Mar 19:44:44 19:49:25 29° 265° (W) 19:54:01 437.490
CUTE-I 28 Mar 19:44:49 19:49:30 29° 265° (W) 19:54:07 437.470
M-CUBED/EXP-1 PRIME 28 Mar 19:59:42 20:03:25 22° 298° (WNW) 20:06:59 437.505
CUBESAT XI-V 28 Mar 20:02:06 20:06:45 76° 284° (WNW) 20:11:21 437.345
BEESAT 3 28 Mar 20:13:56 20:18:04 84° 59° (ENE) 20:22:07 437.485
COMPASS 1 28 Mar 20:21:44 20:23:09 12° 66° (ENE) 20:24:47 437.405
DOVE 4 28 Mar 20:23:24 20:25:45 15° 68° (ENE) 20:28:14 437.250
STRAND 1 28 Mar 20:27:54 20:33:02 86° 285° (WNW) 20:38:08 437.568
HO-68 28 Mar 20:28:41 20:35:17 43° 67° (ENE) 20:42:00 435.675
GOMX 1 28 Mar 20:29:04 20:32:47 26° 71° (ENE) 20:36:25 467.674
AIST 2 28 Mar 20:42:35 20:46:43 48° 55° (NE) 20:50:47 435.215
CANX-2 28 Mar 20:46:20 20:50:11 36° 72° (ENE) 20:54:07 2200.000
CUTE 1.7 + AOD 2 28 Mar 21:00:11 21:04:14 47° 74° (ENE) 21:08:21 437.475
SO-50 28 Mar 21:10:26 21:13:59 21° 316° (NW) 21:17:33 436.795
GONETS M04 28 Mar 21:13:51 21:22:16 51° 284° (WNW) 21:30:41
BEESAT 2 28 Mar 21:14:21 21:17:46 25° 247° (WSW) 21:21:04 435.950
DELFI C3 28 Mar 21:14:42 21:16:46 14° 67° (ENE) 21:19:02 145.870
PRISM 28 Mar 21:14:44 21:17:10 15° 294° (WNW) 21:19:26 437.425
BRITE-PL 28 Mar 21:15:09 21:19:55 61° 260° (W) 21:24:21 437.365/2234.400
AAUSAT CUBESAT 2 28 Mar 21:27:50 21:31:54 58° 75° (ENE) 21:36:02 437.432
RS-15 28 Mar 21:28:18 21:38:46 48° 314° (NW) 21:49:23 29.354- 29.394
DX 1 28 Mar 21:29:07 21:30:45 12° 65° (ENE) 21:32:35 434.975-435.025
SEEDS 28 Mar 21:30:30 21:34:42 90° 255° (WSW) 21:38:57 437.485
CINEMA 3 28 Mar 21:44:19 21:48:28 60° 75° (ENE) 21:52:34 145.822/145.860
Oscar 11 28 Mar 21:47:06 21:51:11 44° 74° (ENE) 21:55:20 145.826/435.025
COMPASS 1 28 Mar 21:54:18 21:58:25 57° 260° (W) 22:02:34 437.405
CUSAT 1 28 Mar 21:55:14 21:58:12 63° 279° (W) 22:00:50 437.405
FUNcube-1 28 Mar 21:56:44 22:00:12 27° 71° (ENE) 22:03:45 145.935
UWE-3 28 Mar 21:58:34 22:02:20 36° 73° (ENE) 22:06:11 435.000/436.395/437.385
DOVE 4 28 Mar 21:59:03 22:03:17 44° 261° (W) 22:07:20 437.250
CUBEBUG 2 28 Mar 22:01:42 22:05:42 48° 74° (ENE) 22:09:43 437.445
VELOX 1 28 Mar 22:05:34 22:07:29 13° 65° (ENE) 22:09:37 145.980
GOMX 1 28 Mar 22:07:07 22:10:56 25° 265° (W) 22:14:30 467.674
ZACube-1 28 Mar 22:08:55 22:12:44 38° 72° (ENE) 22:16:37 437.345
AISAT 28 Mar 22:09:23 22:11:47 15° 66° (ENE) 22:14:21 437.250
STRAND 1 28 Mar 22:10:39 22:11:33 10° 299° (WNW) 22:12:08 437.568
HO-68 28 Mar 22:16:38 22:23:07 35° 264° (W) 22:29:32 435.675
AIST 2 28 Mar 22:22:31 22:24:57 15° 250° (WSW) 22:27:10 435.215
CANX-2 28 Mar 22:23:25 22:26:18 17° 268° (W) 22:29:04 2200.000
50 SAT 28 Mar 22:26:53 22:29:37 19° 69° (ENE) 22:32:29 437.505
ESTCUBE 1 28 Mar 22:36:15 22:38:38 15° 66° (ENE) 22:41:13 437.505/2401.250
CUTE 1.7 + AOD 2 28 Mar 22:38:22 22:40:30 13° 270° (W) 22:42:26 437.475
DANDE 28 Mar 22:40:36 22:43:00 19° 283° (WNW) 22:45:06 436.750
DELFI C3 28 Mar 22:47:44 22:51:37 44° 262° (W) 22:55:32 145.870
ANTELSAT 28 Mar 22:50:24 22:52:51 15° 90° (E) 22:55:32 437.575/2403.000
UKube-1 28 Mar 22:52:59 22:57:19 83° 255° (WSW) 23:01:42 .
ISS 28 Mar 22:56:39 22:59:27 28° 134° (SE) 23:02:19 145.825
DX 1 28 Mar 23:02:14 23:06:33 61° 259° (W) 23:10:54 434.975-435.025
HUMSAT D 28 Mar 23:05:38 23:09:43 89° 82° (E) 23:13:52 437.325/437.525
AAUSAT CUBESAT 2 28 Mar 23:07:10 23:08:01 10° 272° (W) 23:08:36 437.432
QB50P2 28 Mar 23:13:05 23:14:26 12° 89° (E) 23:16:01 145.880/145.840
PCSat 28 Mar 23:16:35 23:19:17 14° 42° (NE) 23:22:12 145.827
Oscar 11 28 Mar 23:25:11 23:27:41 14° 270° (W) 23:29:59 145.826/435.025
FUNcube-1 28 Mar 23:33:20 23:36:35 21° 266° (W) 23:39:45 145.935
UWE-3 28 Mar 23:36:25 23:39:06 16° 268° (W) 23:41:38 435.000/436.395/437.385
VELOX 1 28 Mar 23:39:14 23:43:38 59° 259° (W) 23:48:01 145.980
POPSAT HIP 1 28 Mar 23:40:20 23:43:44 24° 95° (E) 23:47:12 437.405
CUBEBUG 2 28 Mar 23:41:04 23:42:47 12° 271° (W) 23:44:16 437.445
CUBEBUG 1 28 Mar 23:41:25 23:45:47 64° 75° (ENE) 23:50:09 437.445
AISAT 28 Mar 23:43:41 23:48:01 50° 261° (W) 23:52:21 437.250
BUGSAT 1 28 Mar 23:44:01 23:46:41 17° 93° (E) 23:49:29 437.445
UNISAT 6 28 Mar 23:44:54 23:49:26 57° 101° (E) 23:54:01 437.425
ZACube-1 28 Mar 23:46:47 23:49:20 15° 269° (W) 23:51:44 437.345
RS-15 28 Mar 23:47:33 23:54:59 19° 345° (NNW) 00:02:23 29.354- 29.394
TISAT 1 28 Mar 23:47:40 23:50:04 16° 67° (ENE) 23:52:40 437.305
NANOSAT C BR1 28 Mar 23:50:59 23:54:45 31° 97° (E) 23:58:33 145.865
POLYITAN 1 28 Mar 23:54:27 23:58:21 35° 97° (E) 00:02:17 437.675
SPROUT 28 Mar 23:54:30 23:57:44 22° 69° (ENE) 00:01:05 437.525
TIGRISAT 28 Mar 23:55:28 00:00:02 73° 102° (ESE) 00:04:41 435.000
50 SAT 29 Mar 00:00:58 00:04:23 28° 264° (W) 00:07:47 437.505
ESTCUBE 1 29 Mar 00:10:39 00:15:07 54° 260° (W) 00:19:36 437.505/2401.250
ANTELSAT 29 Mar 00:25:31 00:29:59 51° 286° (WNW) 00:34:29 437.575/2403.000
QB50P1 29 Mar 00:31:55 00:36:10 83° 286° (WNW) 00:40:24 145.935-145.965
ISS 29 Mar 00:32:54 00:35:50 30° 330° (NNW) 00:38:46 145.825
DUCHIFAT 1 29 Mar 00:34:12 00:38:26 80° 284° (WNW) 00:42:38 145.980
QB50P2 29 Mar 00:46:36 00:50:45 54° 286° (WNW) 00:54:53 145.880/145.840
PCSat 29 Mar 00:58:11 01:03:38 84° 61° (ENE) 01:09:04 145.827
ITUPSAT 1 29 Mar 01:02:52 01:06:01 18° 66° (ENE) 01:09:20 437.325
YUBILEINY 29 Mar 01:11:33 01:20:03 50° 76° (ENE) 01:28:32 435.215
POPSAT HIP 1 29 Mar 01:16:02 01:19:36 26° 290° (WNW) 01:23:06 437.405
BUGSAT 1 29 Mar 01:18:41 01:22:17 32° 289° (WNW) 01:25:51 437.445
TISAT 1 29 Mar 01:21:33 01:25:35 42° 261° (W) 01:29:36 437.305
CUBEBUG 1 29 Mar 01:21:37 01:22:39 10° 272° (W) 01:23:23 437.445
UNISAT 6 29 Mar 01:23:19 01:25:49 14° 294° (WNW) 01:28:08 437.425
NANOSAT C BR1 29 Mar 01:27:17 01:30:26 20° 291° (WNW) 01:33:30 145.865
SPROUT 29 Mar 01:29:53 01:33:42 30° 264° (W) 01:37:28 437.525
POLYITAN 1 29 Mar 01:31:03 01:34:03 18° 292° (WNW) 01:36:56 437.675
TIGRISAT 29 Mar 01:34:47 01:36:17 11° 295° (WNW) 01:37:33 435.000
SWISSCUBE 29 Mar 01:49:14 01:53:56 58° 74° (ENE) 01:58:41 437.505
BEESAT 29 Mar 01:52:20 01:57:01 58° 74° (ENE) 02:01:45 436.000
RS-15 29 Mar 02:05:18 02:13:13 21° 21° (NNE) 02:21:39 29.354- 29.394
KKS-1 29 Mar 02:12:08 02:14:49 16° 67° (ENE) 02:17:41 437.445
ISS 29 Mar 02:12:31 02:13:04 10° 349° (N) 02:13:34 145.825
ITAMSAT 1 29 Mar 02:27:32 02:29:51 13° 89° (E) 02:32:27 435.822/435.867
ITUPSAT 1 29 Mar 02:38:56 02:43:35 47° 261° (W) 02:48:15 437.325
PCSat 29 Mar 02:44:33 02:46:25 11° 256° (WSW) 02:47:56 145.827
STARS 29 Mar 02:44:42 02:48:07 23° 69° (ENE) 02:51:36 437.465
Oscar 19 29 Mar 03:00:24 03:05:37 85° 281° (W) 03:10:48 437.125/150
YUBILEINY 29 Mar 03:08:56 03:16:37 34° 274° (W) 03:24:02 435.215
Gurwin Techsat 1B 29 Mar 03:11:27 03:16:04 31° 95° (E) 03:20:46 435.225
SWISSCUBE 29 Mar 03:29:43 03:32:16 14° 270° (W) 03:34:33 437.505
BEESAT 29 Mar 03:32:45 03:35:19 14° 270° (W) 03:37:38 436.000
KKS-1 29 Mar 03:46:55 03:51:10 44° 261° (W) 03:55:25 437.445
AIST 1 29 Mar 03:51:15 03:53:28 14° 87° (E) 03:55:54
O/OREOS (USA 219) 29 Mar 03:52:15 03:55:20 19° 101° (ESE) 03:58:35 437.305
AO-7 29 Mar 03:53:50 03:58:08 16° 88° (E) 04:03:00 29.400- 29.500
SO-50 29 Mar 04:01:21 04:05:53 35° 51° (NE) 04:10:26 436.795
JAS-2 29 Mar 04:03:33 04:07:46 16° 84° (E) 04:12:15 435.910
ITAMSAT 1 29 Mar 04:04:47 04:09:56 67° 287° (WNW) 04:15:03 435.822/435.867
HORYU 2 29 Mar 04:15:50 04:19:43 28° 96° (E) 04:23:38 437.375
RS-15 29 Mar 04:17:50 04:29:02 56° 50° (NE) 04:40:48 29.354- 29.394
STARS 29 Mar 04:20:36 04:24:28 29° 264° (W) 04:28:17 437.465
Oscar 19 29 Mar 04:43:18 04:44:16 10° 299° (WNW) 04:44:54 437.125/150
AUBIESAT-1 29 Mar 04:48:40 04:51:43 21° 62° (ENE) 04:55:03 437.475
Gurwin Techsat 1B 29 Mar 04:51:22 04:56:02 31° 291° (WNW) 05:00:38 435.225
M-CUBED/EXP-1 PRIME 29 Mar 05:11:52 05:15:37 42° 67° (ENE) 05:19:44 437.505
MOZHAYETS 4 29 Mar 05:18:00 05:22:37 89° 78° (ENE) 05:27:17
ISS 29 Mar 05:25:08 05:27:58 27° 29° (NNE) 05:30:47 145.825
